Other Surface Observations
Issued by NWS Upton, NY

Home | Current Version | Previous Version | Text Only | Print | Product List | Glossary On
Versions: 1 2 3 4 5 6 7 8 9 10 11 12 13 14 15 16 17 18 19 20 21 22 23 24 25 26 27 28 29 30 31 32 33 34 35 36 37 38 39 40 41 42 43 44 45 46 47 48 49 50
000
SXUS51 KOKX 011757
OSOOKX
NEW YORK CITY METROPOLITAN WEATHER ROUNDUP
NATIONAL WEATHER SERVICE NEW YORK NY
100 PM EST SUN FEB 01 2015


CITY           SKY/WX    TMP DP  RH WIND       PRES   REMARKS
CENTRAL PARK   PTSUNNY   36  17  46 VRB5      30.18F WCI  32
LAGUARDIA APRT PTSUNNY   35  18  49 W9        30.16F WCI  28
KENNEDY INTL   CLOUDY    34  20  56 SW12      30.18F WCI  25
NEWARK/LIBERTY PTSUNNY   34  19  54 SW6       30.17F WCI  29
TETERBORO APRT CLOUDY    35  17  47 W8        30.16F WCI  29
BNX BOT. GARD.   N/A    N/A N/A N/A W13       30.17S

>>>>>>>>>>>>>>>>>>>>>>>>>>>>>>>>> KEY <<<<<<<<<<<<<<<<<<<<<<<<<<<<<<<
> SKY/WX - SKY CONDITION/           : R : WCI - WIND CHILL INDEX    <
>          PRESENT WEATHER          : E : VSB - VISIBILITY IN MILES <
> TMP    - TEMPERATURE IN DEG F     : M : HX  - HEAT INDEX          <
> DP     - DEW POINT TEMPERATURE    : A : TC  - TEMPERATURE IN      <
> RH     - RELATIVE HUMIDITY        : R :       CELSIUS             <
> WIND   - DIRECTION/SPEED (MPH)    : K : VRB - VARIABLE WIND  DIR  <
> PRES   - PRESSURE (IN HG)         : S :                           <
>>>>>>>>>>>>>>>>>>>>>>>>>>>>>>>>> KEY <<<<<<<<<<<<<<<<<<<<<<<<<<<<<<<


USA.gov is the U.S. government's official web portal to all federal, state and local government web resources and services.